Zurück zum Katalog

COSMOS 2143

AktivMilitärPO
NORAD 21299·PAYLOAD·🇷🇺 Russia

Gestartet May 16, 1991 von Plesetsk Cosmodrome

Loading…

Nächste Überflüge (nächste 24 Stunden)

TLE

AktuellSource: Space-Track

Epoche: Sep 14, 2026, 10:54 UTC

1 21299U 91033A   26257.45444543 -.00000001  00000-0 -61733-4 0  9991
2 21299  82.5699 245.5842 0012271 205.3876 323.1309 12.63930076629845

Verfolge COSMOS 2143 in Echtzeit mit AllMySat

Download on the App Store